This demonstration page uses our WeatherBlox Daily Observations layout. Learn more.

Left ArrowRight Arrow

39.01783, -85.05884

Hourly Observations for June 16, 2017

Temp ( °F °C ) Dew Point ( °F °C ) Humidity (%) Winds ( mph kmh ) Pressure ( in mb ) Visibility ( mi km ) Precip ( " mm )
12:52 am 00:52 Mostly Clear 70 21.1 68 20 93 93 N N/A 29.85 1011 10 16 N/A
1:52 am 01:52 Mostly Clear 70 21.1 68 20 93 93 SW 3 6 29.85 1011 10 16 N/A
2:52 am 02:52 Partly Cloudy 68 20 68 20 100 100 N N/A 29.85 1011 9 14 N/A
3:52 am 03:52 Cloudy 70 21.1 68 20 93 93 W 5 7 29.86 1011 10 16 N/A
4:52 am 04:52 Mostly Cloudy 69 20.6 67 19.4 93 93 N N/A 29.85 1011 10 16 N/A
5:52 am 05:52 Mostly Clear 68 20 67 19.4 96 96 N N/A 29.87 1011 7 11 N/A
6:52 am 06:52 Mostly Cloudy with Mist and Fog 68 20 68 20 100 100 SSW 3 6 29.87 1012 6 10 N/A
7:52 am 07:52 Mostly Cloudy 70 21.1 69 20.6 97 97 N N/A 29.89 1012 7 11 N/A
8:52 am 08:52 Mostly Cloudy 75 23.9 69 20.6 82 82 N N/A 29.88 1012 10 16 N/A
9:52 am 09:52 Partly Cloudy 80 26.7 69 20.6 69 69 W 6 9 29.89 1012 10 16 N/A
10:52 am 10:52 Mostly Sunny 81 27.2 68 20 65 65 N 7 11 29.88 1012 10 16 N/A
11:52 am 11:52 Partly Cloudy 83 28.3 64 17.8 53 53 VRB 5 7 29.88 1012 10 16 N/A
12:52 pm 12:52 Mostly Cloudy 84 28.9 65 18.3 53 53 S 5 7 29.87 1012 10 16 N/A
1:52 pm 13:52 Mostly Cloudy 86 30 62 16.7 45 45 SSW 5 7 29.85 1011 10 16 N/A
2:52 pm 14:52 Mostly Cloudy 87 30.6 63 17.2 45 45 S 6 9 29.83 1010 10 16 N/A
3:52 pm 15:52 Partly Cloudy 87 30.6 64 17.8 46 46 S 9 15 29.82 1010 10 16 N/A
4:52 pm 16:52 Partly Cloudy 87 30.6 64 17.8 46 46 SSW 8 13 29.80 1009 10 16 N/A
5:52 pm 17:52 Mostly Cloudy 86 30 63 17.2 46 46 SSW 7 11 29.80 1009 10 16 N/A
6:52 pm 18:52 Mostly Cloudy 85 29.4 63 17.2 48 48 SSW 7 11 29.79 1009 10 16 N/A
7:52 pm 19:52 Mostly Cloudy 83 28.3 64 17.8 53 53 SW 6 9 29.79 1009 10 16 N/A
8:52 pm 20:52 Mostly Cloudy 81 27.2 64 17.8 57 57 SW 5 7 29.79 1009 10 16 N/A
9:52 pm 21:52 Partly Cloudy 74 23.3 65 18.3 74 74 SSW 3 6 29.80 1009 10 16 N/A
10:52 pm 22:52 Partly Cloudy 76 24.4 66 18.9 72 72 N N/A 29.80 1009 10 16 N/A
11:52 pm 23:52 Partly Cloudy 70 21.1 66 18.9 87 87 SSW 6 9 29.80 1009 10 16 N/A

Powered by AerisWeather